Location: Cheching
(60.0667°N, 164.2167°W)
Time: 22:09:42
(UTC+00:00)

LilacSat-2 - Pass Details

Date: 17 January 2021
Orbit: 512 x 534 km, 97.5° (Epoch: 07 March)

Event Time Altitude Azimuth Distance (km) Brightness Sun altitude
Rises 03:44:31 0° 170° (S) 2,628 ? -8.2°
Reaches altitude 10° 03:46:37 10° 173° (S) 1,748 ? -8.4°
Maximum altitude 03:50:22 66° 256° (WSW) 576 ? -8.8°
Drops below altitude 10° 03:54:10 10° 340° (NNW) 1,774 ? -9.2°
Sets 03:56:19 0° 343° (NNW) 2,672 ? -9.5°
